千帆星座-86 (QIANFAN-86)

导读

QIANFAN-86 是中国自主研发的北斗卫星导航系统中的一颗重要卫星,属于北斗三号系统组网的一部分。该卫星主要用于提供高精度定位、导航和授时服务,支持全球范围内的应用。QIANFAN-86 采用先进技术和稳定平台,提升了系统的可靠性和覆盖能力,广泛应用于交通、农业、通信、应急救援等领域,助力国家数字化建设和智慧社会发展。

Basic Information
目录编号:
63172
目录名称:
QIANFAN-86
国际标识:
2025-046P
轨道中心:
EARTH
卫星名称:
千帆星座-86
卫星全名:
千帆星座-86 (QIANFAN-86)
卫星状态:
在轨 (已飞行459 天)
发射日期:
2025-03-11 UTC
国别 :
中国 (CN)
星等 :
--
Orbit Information
数据来源 国际轨道数据 AOE轨道数据
星历时间 2026-06-13T03:49:19+0800
6小时前
查看轨道信息
2026-06-12T05:00:00+0800
1天前
查看轨道信息
半长轴 7446.661km 7446.662km
偏心率 0.000962 0.0009143
轨道倾角 88.971° 88.971°
近地点辐角 333.924° 336.148°
升交点赤经 300.902° 301.001°
平近点角 26.142° 81.751°
近地点 1061.36km 1061.716km
远地点 1075.688km 1075.334km
周期 106.586分钟 106.586分钟
每日圈数 13.510157 13.510155
Detailed Information
卫星平台:
86
覆盖范围:
全球
运营商:
上海垣信卫星科技有限公司
运营商所在国:
中国
使用方式:
暂无
Satellite Introduction
千帆星座,也被称为“G60星链”计划,是中国版“星链”的重要组成部分,旨在打造一个由1.4万多颗低轨宽频多媒体卫星构成的庞大星座。千帆星座计划由上海垣信卫星科技有限公司负责实施,于2023年启动建设。该项目是我国第二个低轨卫星大星座,旨在通过构建庞大的卫星网络,为全球用户提供高质量的通信和宽带互联网服务。
2D Orbit Map
3D Orbit Map
Orbit Altitude Analysis Chart
Orbit Inclination Analysis Chart
Orbit Comprehensive Analysis Chart
View Comprehensive Chart